Brookings, OR

5:41 PM PDT on March 28, 2017 (GMT -0700)
Brookings State

Weather History for KBOK - May, 2014

Change the Weather History Date:

Monday, May 19, 2014

  Actual Average Record
Temperature  
Mean Temperature 55 °F -  
Max Temperature 59 °F 67 °F 93 °F (1947)
Min Temperature 50 °F 48 °F 39 °F (1974)
Degree Days  
Heating Degree Days 10    
Growing Degree Days 5 (Base 50)    
Moisture  
Dew Point 51 °F    
Average Humidity 88    
Maximum Humidity 100    
Minimum Humidity 62    
Precipitation  
Precipitation 0.02 in - - ()
Sea Level Pressure  
Sea Level Pressure 29.99 in    
Wind  
Wind Speed 5 mph (SSE)    
Max Wind Speed 9 mph    
Max Gust Speed -    
Visibility 7 miles    
Events Rain    
Averages and records for this station are not official NWS values.
T = Trace of Precipitation, MM = Missing Value Source: NWS Daily Summary

Daily Weather History Graph

Daily Weather History Graph

Search for Another Location

Airport or City:

Trip Planner

Search our weather history database for the weather conditions in past years. The results will help you decide how hot, cold, wet, or windy it might be!

Date:

Astronomy

May. 19, 2014 Rise Set
Actual Time 5:52 AM PDT 8:35 PM PDT
Civil Twilight 5:20 AM PDT 9:07 PM PDT
Nautical Twilight 4:39 AM PDT 9:48 PM PDT
Astronomical Twilight 3:53 AM PDT 10:35 PM PDT
Moon 12:25 AM PDT (5/19) 10:58 AM PDT (5/19)
Length of Visible Light 15h 47m
Length of Day
14h 42m
Waning Gibbous, 70% of the Moon is Illuminated
May 19
Waning Gibbous
May 21
Last Quarter
May 28
New
Jun 5
First Quarter
Jun 12
Full

Hourly Weather History & Observations

Time (PDT) Temp. Dew Point Humidity Pressure Visibility Wind Dir Wind Speed Gust Speed Precip Events Conditions
12:02 AM 53.6 °F 51.8 °F 94% 30.01 in 3.0 mi SSE 5.8 mph - 0.00 in Rain Light Rain
12:10 AM 53.6 °F 51.8 °F 94% 30.01 in 3.0 mi SSE 4.6 mph - 0.01 in Rain Light Rain
12:13 AM 53.6 °F 53.6 °F 100% 30.01 in 2.0 mi WSW 4.6 mph - 0.02 in Rain Rain
12:22 AM 53.6 °F 51.8 °F 94% 30.01 in 3.0 mi Variable 4.6 mph - 0.02 in Rain Light Rain
12:43 AM 53.6 °F 51.8 °F 94% 30.01 in 8.0 mi ENE 3.5 mph - 0.02 in   Overcast
12:56 AM 52.9 °F 52.0 °F 97% 30.01 in 8.0 mi Calm Calm - 0.02 in   Overcast
1:31 AM 53.6 °F 51.8 °F 94% 30.00 in 7.0 mi SE 4.6 mph - N/A   Overcast
1:56 AM 52.0 °F 50.9 °F 96% 30.00 in 7.0 mi Calm Calm - N/A   Mostly Cloudy
2:06 AM 51.8 °F 51.8 °F 100% 29.99 in 8.0 mi ESE 3.5 mph - N/A   Mostly Cloudy
2:56 AM 52.0 °F 50.9 °F 96% 29.99 in 8.0 mi SE 4.6 mph - N/A   Mostly Cloudy
3:04 AM 51.8 °F 51.8 °F 100% 29.98 in 8.0 mi Variable 3.5 mph - N/A   Overcast
3:47 AM 51.8 °F 51.8 °F 100% 29.98 in 9.0 mi Variable 3.5 mph - N/A   Overcast
3:56 AM 52.0 °F 50.9 °F 96% 29.98 in 9.0 mi SE 4.6 mph - N/A   Overcast
4:56 AM 52.0 °F 50.0 °F 93% 29.97 in 9.0 mi East 3.5 mph - N/A   Overcast
5:04 AM 51.8 °F 50.0 °F 94% 29.97 in 9.0 mi ESE 3.5 mph - N/A   Overcast
6:26 AM 51.8 °F 50.0 °F 94% 29.97 in 1.8 mi ESE 3.5 mph - 0.04 in Rain Rain
6:33 AM 51.8 °F 50.0 °F 94% 29.97 in 2.0 mi Calm Calm - 0.04 in Rain Light Rain
7:56 AM 52.0 °F 50.9 °F 96% 29.97 in 8.0 mi Variable 4.6 mph - 0.00 in   Overcast
8:07 AM 51.8 °F 51.8 °F 100% 29.97 in 8.0 mi Variable 3.5 mph - N/A   Overcast
8:39 AM 51.8 °F 51.8 °F 100% 29.97 in 7.0 mi Variable 5.8 mph - N/A   Mostly Cloudy
8:56 AM 52.9 °F 50.9 °F 93% 29.97 in 4.0 mi Variable 4.6 mph - 0.00 in Rain Light Rain
9:56 AM 54.9 °F 52.9 °F 93% 29.98 in 8.0 mi SE 6.9 mph - 0.00 in   Overcast
10:03 AM 55.4 °F 51.8 °F 88% 29.97 in 8.0 mi SSE 6.9 mph - N/A   Overcast
10:30 AM 57.2 °F 51.8 °F 82% 29.97 in 8.0 mi South 6.9 mph - N/A   Scattered Clouds
10:56 AM 57.9 °F 50.9 °F 77% 29.98 in 7.0 mi South 8.1 mph - 0.00 in Rain Light Rain
11:09 AM 57.2 °F 51.8 °F 82% 29.98 in 6.0 mi SSW 6.9 mph - 0.00 in Rain Light Rain
11:32 AM 55.4 °F 53.6 °F 94% 29.99 in 6.0 mi SW 8.1 mph - 0.00 in   Mostly Cloudy
11:42 AM 55.4 °F 51.8 °F 88% 29.99 in 7.0 mi Variable 3.5 mph - 0.00 in   Mostly Cloudy
11:56 AM 55.9 °F 50.9 °F 83% 30.00 in 8.0 mi Variable 5.8 mph - 0.00 in   Mostly Cloudy
12:08 PM 55.4 °F 50.0 °F 82% 29.99 in 8.0 mi Variable 4.6 mph - N/A   Scattered Clouds
12:56 PM 57.9 °F 50.0 °F 75% 30.00 in 8.0 mi West 5.8 mph - N/A   Clear
1:56 PM 57.9 °F 48.9 °F 72% 30.00 in 8.0 mi Variable 4.6 mph - N/A   Partly Cloudy
2:56 PM 56.8 °F 48.9 °F 75% 30.00 in 7.0 mi Variable 4.6 mph - N/A   Clear
3:56 PM 59.9 °F 50.0 °F 70% 29.99 in 7.0 mi WSW 6.9 mph - 0.00 in   Partly Cloudy
4:56 PM 59.9 °F 46.9 °F 62% 29.98 in 8.0 mi Variable 5.8 mph - N/A   Clear
5:56 PM 59.0 °F 46.9 °F 64% 29.99 in 8.0 mi NW 8.1 mph - N/A   Partly Cloudy
6:56 PM 59.0 °F 48.9 °F 69% 29.99 in 8.0 mi NNW 8.1 mph - N/A   Overcast
7:56 PM 57.9 °F 50.0 °F 75% 29.99 in 7.0 mi NNW 9.2 mph - N/A   Overcast
8:56 PM 54.9 °F 50.9 °F 86% 29.99 in 7.0 mi NW 4.6 mph - N/A   Mostly Cloudy
9:56 PM 54.0 °F 48.9 °F 83% 30.01 in 9.0 mi NNW 4.6 mph - N/A   Partly Cloudy
10:56 PM 52.0 °F 48.9 °F 89% 30.01 in 9.0 mi Calm Calm - N/A   Mostly Cloudy
11:56 PM 50.9 °F 48.9 °F 93% 30.01 in 9.0 mi NNE 3.5 mph - N/A   Clear